This demonstration page uses our WeatherBlox Daily Observations layout. Learn more.

Left ArrowRight Arrow

38.88101, -77.10428

Hourly Observations for July 16, 2016

Temp ( °F °C ) Dew Point ( °F °C ) Humidity (%) Winds ( mph kmh ) Pressure ( in mb ) Visibility ( mi km ) Precip ( " mm )
12:52 am 00:52 Mostly Cloudy 81 27.2 67 19.4 62 62 S 5 7 29.99 1016 10 16.0934 0 0
1:52 am 01:52 Mostly Clear 79 26.1 67 19.4 67 67 S 6 9 29.97 1015 10 16.0934 0 0
2:52 am 02:52 Mostly Clear 77 25 68 20 74 74 SW 5 7 29.97 1015 10 16.0934 0 0
3:52 am 03:52 Clear 76 24.4 68 20 77 77 SSW 6 9 29.97 1015 10 16.0934 0 0
4:52 am 04:52 Clear 76 24.4 68 20 77 77 S 3 6 29.98 1015 10 16.0934 0 0
5:52 am 05:52 Partly Cloudy 75 23.9 67 19.4 76 76 SSW 5 7 29.99 1016 10 16.0934 0 0
6:52 am 06:52 Mostly Cloudy 76 24.4 68 20 77 77 SSW 5 7 30.01 1016 10 16.0934 0 0
7:52 am 07:52 Mostly Cloudy 79 26.1 68 20 69 69 SSW 7 11 30.03 1017 10 16.0934 0 0
8:52 am 08:52 Mostly Cloudy 82 27.8 68 20 63 63 ESE 3 6 30.04 1017 10 16.0934 0 0
9:52 am 09:52 Mostly Cloudy 87 30.6 67 19.4 51 51 N 8 13 30.05 1018 10 16.0934 0 0
10:52 am 10:52 Mostly Cloudy 88 31.1 67 19.4 50 50 Calm 30.05 1018 10 16.0934 0 0
11:52 am 11:52 Mostly Cloudy 89 31.7 66 18.9 47 47 Calm 30.06 1018 10 16.0934 0 0
12:52 pm 12:52 Mostly Cloudy 90 32.2 67 19.4 47 47 SE 7 11 30.05 1018 10 16.0934 0 0
1:52 pm 13:52 Mostly Cloudy 92 33.3 67 19.4 44 44 SSE 8 13 30.04 1017 10 16.0934 0 0
2:52 pm 14:52 Mostly Cloudy 92 33.3 68 20 46 46 S 10 17 30.01 1016 10 16.0934 0 0
3:52 pm 15:52 Mostly Cloudy 93 33.9 66 18.9 41 41 S 12 19 30 1016 10 16.0934 0 0
4:52 pm 16:52 Mostly Cloudy 92 33.3 68 20 46 46 S 9 15 30 1016 10 16.0934 0 0
5:08 pm 17:08 Mostly Cloudy 91 33 70 21 49 49 SSW 8 13 30 1016 10 16.0934 0 0
5:16 pm 17:16 Mostly Cloudy 90 32 66 19 46 46 WNW 23 37 30.03 1017 10 16.0934 0 0
5:27 pm 17:27 Cloudy 85 29.4 66 18.9 53 53 NW 16 26 30.03 1017 10 16.0934 0 0
5:42 pm 17:42 Cloudy with Light Thunderstorms 79 26 68 20 70 70 NNW 17 28 30 1016 9 14.48406 0 0
5:52 pm 17:52 Cloudy with Heavy Thunderstorms 77 25 66 18.9 69 69 NW 17 28 30.04 1017 4 6.43736 0.02 0.508
5:57 pm 17:57 Windy with Storms Likely 77 25 66 18.9 69 69 W 20 31 30.06 1018 7 11.26538 0.02 0.508
6:03 pm 18:03 Cloudy with Heavy Thunderstorms 77 25 66 19 69 69 WSW 17 28 30.06 1018 2 3.21868 0 0
6:07 pm 18:07 Cloudy with Heavy Thunderstorms 75 23.9 67 19.4 76 76 WSW 22 35 30.09 1019 1.5 2.41401 0.15 3.81
6:16 pm 18:16 Cloudy with Heavy Thunderstorms 72 22 66 19 83 83 SSW 14 22 30.09 1019 3 4.82802 0 0
6:25 pm 18:25 Cloudy with Light Thunderstorms 73 22.8 68 20 84 84 VRB 7 11 30.09 1019 7 11.26538 0.36 9.144
6:42 pm 18:42 Cloudy with Light Rain 75 24 66 19 74 74 NNW 7 11 30.09 1019 10 16.0934 0 0
6:52 pm 18:52 Cloudy with Rain 75 23.9 68 20 79 79 N 6 9 30.08 1019 7 11.26538 0.37 9.398
7:52 pm 19:52 Mostly Cloudy 75 23.9 69 20.6 82 82 ESE 9 15 30.05 1018 10 16.0934 0.04 1.016
8:52 pm 20:52 Mostly Cloudy with Light Rain 75 23.9 69 20.6 82 82 SE 5 7 30.08 1019 10 16.0934 0 0.0254
9:52 pm 21:52 Cloudy 74 23.3 71 21.7 91 91 SW 7 11 30.09 1019 10 16.0934 0 0.0254
10:52 pm 22:52 Cloudy 73 22.8 69 20.6 87 87 SW 6 9 30.09 1019 10 16.0934 0 0
11:52 pm 23:52 Cloudy 74 23.3 69 20.6 85 85 W 8 13 30.09 1019 10 16.0934 0 0

Powered by AerisWeather